Regional Weather Roundup
Issued by NWS

Home | Current Version | Previous Version | Graphics & Text | Print | Product List | Glossary Off
Versions: 1 2 3 4 5 6 7 8 9 10 11 12 13 14 15 16 17 18 19 20 21 22 23 24 25 26 27 28 29 30 31 32 33 34 35 36 37 38 39 40 41 42 43 44 45 46 47 48 49 50

000
ASUS43 KLSX 232359
RWRMO

WEATHER SUMMARY FOR MISSOURI
NATIONAL WEATHER SERVICE SPRINGFIELD MO
700 PM CDT WED APR 23 2014

NOTE: "FAIR" INDICATES FEW OR NO CLOUDS BELOW 12,000 FEET WITH NO
       SIGNIFICANT WEATHER AND/OR OBSTRUCTIONS TO VISIBILITY.
       CURRENT SKY AND/OR WEATHER CONDITIONS ARE NOT AVAILABLE FOR
       CHILLICOTHE AND FARMINGTON.

MOZ001>031-035>038-043-044-053-054-240100-
...NORTHERN AND WESTERN MISSOURI...

CITY           SKY/WX    TMP DP  RH WIND       PRES   REMARKS
KANSAS CTY INT PTSUNNY   71  42  35 SE21      29.72F
6HR MIN TEMP:  67; 6HR MAX TEMP:  73; 6HR PCP: TRACE;

KANSAS C DTWN  MOSUNNY   74  43  32 SE16G25   29.71F
6HR MIN TEMP:  69; 6HR MAX TEMP:  76; 6HR PCP: TRACE;

LEE`S SUMMIT   SUNNY     72  43  35 SE15G23   29.74F
6HR MIN TEMP:  66; 6HR MAX TEMP:  73;

ST JOSEPH      PTSUNNY   70  42  36 SE22G28   29.71F
6HR MIN TEMP:  59; 6HR MAX TEMP:  72; 6HR PCP: TRACE;

CHILLICOTHE      N/A     66  37  34 SE13G25   29.80F
6HR MIN TEMP:  56; 6HR MAX TEMP:  68;

KIRKSVILLE     CLOUDY    58  37  45 SE20G25   29.88F
6HR MIN TEMP:  55; 6HR MAX TEMP:  61; 6HR PCP: TRACE;


$$
MOZ066>068-077>081-088>096-101>105-240100-
...SOUTHWEST MISSOURI...

CITY           SKY/WX    TMP DP  RH WIND       PRES   REMARKS
SPRINGFIELD    SUNNY     74  41  30 SE14G23   29.83F
6HR MIN TEMP:  72; 6HR MAX TEMP:  77;

JOPLIN         SUNNY     77  45  32 S18       29.78F
6HR MIN TEMP:  76; 6HR MAX TEMP:  81;


$$
MOZ032>034-039>042-045>050-055>058-069>072-240100-
...CENTRAL MISSOURI...

CITY           SKY/WX    TMP DP  RH WIND       PRES   REMARKS
COLUMBIA       MOCLDY    63  39  41 E14       29.89F
6HR MIN TEMP:  61; 6HR MAX TEMP:  67;

JEFFERSON CITY MOCLDY    67  37  33 E15       29.88F
6HR MIN TEMP:  64; 6HR MAX TEMP:  70;

ROLLA          PTCLDY    66  40  38 NE7       29.89S
6HR MIN TEMP:  64; 6HR MAX TEMP:  72;

SEDALIA        MOSUNNY   70  40  33 SE15      29.84F
6HR MIN TEMP:  62; 6HR MAX TEMP:  73;

OSAGE BEACH    PTCLDY    73  32  21 S10       29.88S

$$
MOZ051-052-059>065-240100-
...EAST CENTRAL MISSOURI...

CITY           SKY/WX    TMP DP  RH WIND       PRES   REMARKS
ST LOUIS INTL  CLOUDY    63  36  36 E13       29.98F
6HR MIN TEMP:  62; 6HR MAX TEMP:  66;

SPIRIT OF STL  CLOUDY    62  35  36 E10       29.95F
6HR MIN TEMP:  61; 6HR MAX TEMP:  64;

ST CHARLES     CLOUDY    61  36  39 E13       29.98F
6HR MIN TEMP:  61; 6HR MAX TEMP:  64;


$$
MOZ072>076-082>087-097>100-106>115-240100-
...SOUTH CENTRAL AND SOUTHEAST MISSOURI...

CITY           SKY/WX    TMP DP  RH WIND       PRES   REMARKS
CAPE GIRARDEAU CLEAR     66  40  38 SE9       29.97F
6HR MIN TEMP:  66; 6HR MAX TEMP:  70;

FARMINGTON     PTCLDY    64  37  36 E7        29.98S
6HR MIN TEMP:  64; 6HR MAX TEMP:  70;

POPLAR BLUFF   CLEAR     68  40  35 E6        29.95S
6HR MIN TEMP:  68; 6HR MAX TEMP:  72;

WEST PLAINS    CLEAR     71  37  28 SE12G21   29.93S
6HR MIN TEMP:  68; 6HR MAX TEMP:  74;


$$



USA.gov is the U.S. government's official web portal to all federal, state and local government web resources and services.